Time,TemperatureF,DewpointF,PressureIn,WindDirection,WindDirectionDegrees,WindSpeedMPH,WindSpeedGustMPH,Humidity,HourlyPrecipIn,Conditions,Clouds,dailyrainin,SoftwareType,DateUTC
2013-03-11 00:05:00,41.2,32.2,30.11,North,0,0.0,0.0,70,0.00,,,0.00,Wunderground v.1.15,2013-03-11 05:05:00,
2013-03-11 00:10:00,40.8,32.1,30.11,North,0,0.0,0.0,71,0.00,,,0.00,Wunderground v.1.15,2013-03-11 05:10:00,
2013-03-11 00:20:00,40.1,31.8,30.11,North,0,0.0,0.0,72,0.00,,,0.00,Wunderground v.1.15,2013-03-11 05:20:00,
2013-03-11 00:25:00,39.8,31.8,30.11,North,0,0.0,0.0,73,0.00,,,0.00,Wunderground v.1.15,2013-03-11 05:25:00,
2013-03-11 00:35:00,39.1,31.5,30.11,North,0,0.0,0.0,74,0.00,,,0.00,Wunderground v.1.15,2013-03-11 05:35:00,
2013-03-11 00:40:00,38.8,31.6,30.12,North,0,0.0,0.0,75,0.00,,,0.00,Wunderground v.1.15,2013-03-11 05:40:00,
2013-03-11 00:50:00,38.3,31.4,30.11,North,0,0.0,0.0,76,0.00,,,0.00,Wunderground v.1.15,2013-03-11 05:50:00,
2013-03-11 00:55:00,38.0,31.4,30.11,North,0,0.0,0.0,77,0.00,,,0.00,Wunderground v.1.15,2013-03-11 05:55:00,
2013-03-11 01:05:00,37.8,31.9,30.11,North,0,0.0,0.0,79,0.00,,,0.00,Wunderground v.1.15,2013-03-11 06:05:00,
2013-03-11 01:10:00,37.6,31.7,30.11,North,0,0.0,0.0,79,0.00,,,0.00,Wunderground v.1.15,2013-03-11 06:10:00,
2013-03-11 01:20:00,37.2,31.3,30.11,North,0,0.0,0.0,79,0.00,,,0.00,Wunderground v.1.15,2013-03-11 06:20:00,
2013-03-11 01:25:00,37.0,31.4,30.11,North,0,0.0,0.0,80,0.00,,,0.00,Wunderground v.1.15,2013-03-11 06:25:00,
2013-03-11 01:35:00,36.8,31.5,30.11,North,0,0.0,0.0,81,0.00,,,0.00,Wunderground v.1.15,2013-03-11 06:35:00,
2013-03-11 01:40:00,36.6,31.3,30.11,North,0,0.0,0.0,81,0.00,,,0.00,Wunderground v.1.15,2013-03-11 06:40:00,
2013-03-11 01:50:00,36.3,31.3,30.11,North,0,0.0,0.0,82,0.00,,,0.00,Wunderground v.1.15,2013-03-11 06:50:00,
2013-03-11 01:55:00,36.3,31.6,30.11,North,0,0.0,0.0,83,0.00,,,0.00,Wunderground v.1.15,2013-03-11 06:55:00,
2013-03-11 02:05:00,36.2,31.5,30.11,North,0,0.0,0.0,83,0.00,,,0.00,Wunderground v.1.15,2013-03-11 07:05:00,
2013-03-11 02:10:00,36.2,31.5,30.11,North,0,0.0,0.0,83,0.00,,,0.00,Wunderground v.1.15,2013-03-11 07:10:00,
2013-03-11 02:20:00,36.0,31.6,30.10,North,0,0.0,0.0,84,0.00,,,0.00,Wunderground v.1.15,2013-03-11 07:20:00,
2013-03-11 02:25:00,36.2,31.8,30.11,North,0,0.0,0.0,84,0.00,,,0.00,Wunderground v.1.15,2013-03-11 07:25:00,
2013-03-11 02:35:00,36.2,32.1,30.10,North,0,0.0,0.0,85,0.00,,,0.00,Wunderground v.1.15,2013-03-11 07:35:00,
2013-03-11 02:40:00,36.2,32.1,30.10,North,0,0.0,0.0,85,0.00,,,0.00,Wunderground v.1.15,2013-03-11 07:40:00,
2013-03-11 02:50:00,36.3,32.5,30.10,North,0,0.0,0.0,86,0.00,,,0.00,Wunderground v.1.15,2013-03-11 07:50:00,
2013-03-11 02:55:00,36.3,32.5,30.10,North,0,0.0,0.0,86,0.00,,,0.00,Wunderground v.1.15,2013-03-11 07:55:00,
2013-03-11 03:05:00,36.3,32.5,30.10,North,0,0.0,0.0,86,0.00,,,0.00,Wunderground v.1.15,2013-03-11 08:05:00,
2013-03-11 03:10:00,36.5,32.7,30.10,North,0,0.0,0.0,86,0.00,,,0.00,Wunderground v.1.15,2013-03-11 08:10:00,
2013-03-11 03:20:00,36.5,32.7,30.09,North,0,0.0,0.0,86,0.00,,,0.00,Wunderground v.1.15,2013-03-11 08:20:00,
2013-03-11 03:25:00,36.5,32.7,30.09,North,0,0.0,0.0,86,0.00,,,0.00,Wunderground v.1.15,2013-03-11 08:25:00,
2013-03-11 03:35:00,36.5,32.4,30.09,North,0,0.0,0.0,85,0.00,,,0.00,Wunderground v.1.15,2013-03-11 08:35:00,
2013-03-11 03:40:00,36.5,32.7,30.09,North,0,0.0,0.0,86,0.00,,,0.00,Wunderground v.1.15,2013-03-11 08:40:00,
2013-03-11 03:50:00,36.5,32.7,30.09,North,0,0.0,0.0,86,0.00,,,0.00,Wunderground v.1.15,2013-03-11 08:50:00,
2013-03-11 03:55:00,36.5,32.7,30.09,North,0,0.0,2.0,86,0.00,,,0.00,Wunderground v.1.15,2013-03-11 08:55:00,
2013-03-11 04:05:00,36.6,32.8,30.09,North,0,0.0,0.0,86,0.00,,,0.00,Wunderground v.1.15,2013-03-11 09:05:00,
2013-03-11 04:10:00,36.6,32.5,30.09,North,0,0.0,0.0,85,0.00,,,0.00,Wunderground v.1.15,2013-03-11 09:10:00,
2013-03-11 04:20:00,36.8,32.7,30.08,North,0,0.0,0.0,85,0.00,,,0.00,Wunderground v.1.15,2013-03-11 09:20:00,
2013-03-11 04:25:00,36.8,32.4,30.08,North,0,0.0,0.0,84,0.00,,,0.00,Wunderground v.1.15,2013-03-11 09:25:00,
2013-03-11 04:35:00,36.8,32.1,30.08,North,0,0.0,0.0,83,0.00,,,0.00,Wunderground v.1.15,2013-03-11 09:35:00,
2013-03-11 04:40:00,36.8,32.1,30.08,North,0,0.0,0.0,83,0.00,,,0.00,Wunderground v.1.15,2013-03-11 09:40:00,
2013-03-11 04:50:00,36.6,31.9,30.08,North,0,0.0,0.0,83,0.00,,,0.00,Wunderground v.1.15,2013-03-11 09:50:00,
2013-03-11 04:55:00,36.6,31.9,30.08,North,0,0.0,0.0,83,0.00,,,0.00,Wunderground v.1.15,2013-03-11 09:55:00,
2013-03-11 05:05:00,36.8,31.8,30.09,North,0,0.0,0.0,82,0.00,,,0.00,Wunderground v.1.15,2013-03-11 10:05:00,
2013-03-11 05:10:00,36.8,31.5,30.09,North,0,0.0,0.0,81,0.00,,,0.00,Wunderground v.1.15,2013-03-11 10:10:00,
2013-03-11 05:20:00,36.8,31.5,30.09,North,0,0.0,0.0,81,0.00,,,0.00,Wunderground v.1.15,2013-03-11 10:20:00,
2013-03-11 05:25:00,36.6,31.3,30.09,North,0,0.0,1.0,81,0.00,,,0.00,Wunderground v.1.15,2013-03-11 10:25:00,
2013-03-11 05:35:00,36.6,30.7,30.09,North,0,1.0,1.0,79,0.00,,,0.00,Wunderground v.1.15,2013-03-11 10:35:00,
2013-03-11 05:40:00,36.8,30.9,30.09,North,0,0.0,0.0,79,0.00,,,0.00,Wunderground v.1.15,2013-03-11 10:40:00,
2013-03-11 05:50:00,36.8,30.6,30.10,North,0,0.0,0.0,78,0.00,,,0.00,Wunderground v.1.15,2013-03-11 10:50:00,
2013-03-11 05:55:00,36.6,30.1,30.10,North,0,0.0,3.0,77,0.00,,,0.00,Wunderground v.1.15,2013-03-11 10:55:00,
2013-03-11 06:05:00,36.6,29.7,30.10,North,0,0.0,5.0,76,0.00,,,0.00,Wunderground v.1.15,2013-03-11 11:05:00,
2013-03-11 06:10:00,36.6,29.7,30.10,North,0,0.0,0.0,76,0.00,,,0.00,Wunderground v.1.15,2013-03-11 11:10:00,
2013-03-11 06:20:00,36.5,30.0,30.11,North,1,0.0,0.0,77,0.00,,,0.00,Wunderground v.1.15,2013-03-11 11:20:00,
2013-03-11 06:25:00,36.3,30.1,30.11,North,1,0.0,0.0,78,0.00,,,0.00,Wunderground v.1.15,2013-03-11 11:25:00,
2013-03-11 06:35:00,36.6,29.7,30.12,North,357,0.0,2.0,76,0.00,,,0.00,Wunderground v.1.15,2013-03-11 11:35:00,
2013-03-11 06:40:00,36.8,29.6,30.12,North,357,1.0,1.0,75,0.00,,,0.00,Wunderground v.1.15,2013-03-11 11:40:00,
2013-03-11 06:50:00,37.0,29.5,30.12,NNW,342,1.0,2.0,74,0.00,,,0.00,Wunderground v.1.15,2013-03-11 11:50:00,
2013-03-11 06:55:00,37.0,29.1,30.12,NNW,340,1.0,2.0,73,0.00,,,0.00,Wunderground v.1.15,2013-03-11 11:55:00,
2013-03-11 07:05:00,36.9,29.4,30.13,NNW,340,0.0,0.0,74,0.00,,,0.00,Wunderground v.1.15,2013-03-11 12:05:00,
2013-03-11 07:10:00,36.6,29.1,30.13,NNW,339,0.0,0.0,74,0.00,,,0.00,Wunderground v.1.15,2013-03-11 12:10:00,
2013-03-11 07:20:00,36.3,28.8,30.14,NNW,339,0.0,0.0,74,0.00,,,0.00,Wunderground v.1.15,2013-03-11 12:20:00,
2013-03-11 07:25:00,36.0,28.8,30.14,NNW,339,0.0,0.0,75,0.00,,,0.00,Wunderground v.1.15,2013-03-11 12:25:00,
2013-03-11 07:35:00,35.6,28.5,30.14,NNW,339,0.0,0.0,75,0.00,,,0.00,Wunderground v.1.15,2013-03-11 12:35:00,
2013-03-11 07:40:00,35.3,28.5,30.14,NNW,339,0.0,0.0,76,0.00,,,0.00,Wunderground v.1.15,2013-03-11 12:40:00,
2013-03-11 07:50:00,35.0,28.2,30.14,NNW,339,0.0,0.0,76,0.00,,,0.00,Wunderground v.1.15,2013-03-11 12:50:00,
2013-03-11 07:55:00,34.7,27.6,30.14,NNW,339,0.0,0.0,75,0.00,,,0.00,Wunderground v.1.15,2013-03-11 12:55:00,
2013-03-11 08:05:00,34.6,27.8,30.15,NNW,339,0.0,0.0,76,0.00,,,0.00,Wunderground v.1.15,2013-03-11 13:05:00,
2013-03-11 08:10:00,34.6,27.8,30.15,NNW,339,0.0,0.0,76,0.00,,,0.00,Wunderground v.1.15,2013-03-11 13:10:00,
2013-03-11 08:20:00,35.0,27.5,30.15,NNW,336,1.0,1.0,74,0.00,,,0.00,Wunderground v.1.15,2013-03-11 13:20:00,
2013-03-11 08:25:00,35.5,27.7,30.16,NNW,329,1.0,1.0,73,0.00,,,0.00,Wunderground v.1.15,2013-03-11 13:25:00,
2013-03-11 08:35:00,36.3,28.8,30.16,NNW,329,0.0,0.0,74,0.00,,,0.00,Wunderground v.1.15,2013-03-11 13:35:00,
2013-03-11 08:40:00,36.6,28.8,30.16,NW,326,0.0,0.0,73,0.00,,,0.00,Wunderground v.1.15,2013-03-11 13:40:00,
2013-03-11 08:50:00,37.6,29.0,30.17,West,268,2.0,2.0,71,0.00,,,0.00,Wunderground v.1.15,2013-03-11 13:50:00,
2013-03-11 08:55:00,38.2,28.9,30.17,West,277,1.0,2.0,69,0.00,,,0.00,Wunderground v.1.15,2013-03-11 13:55:00,
2013-03-11 09:05:00,38.9,28.5,30.17,WNW,282,1.0,8.0,66,0.00,,,0.00,Wunderground v.1.15,2013-03-11 14:05:00,
2013-03-11 09:10:00,39.3,28.5,30.18,WNW,282,1.0,1.0,65,0.00,,,0.00,Wunderground v.1.15,2013-03-11 14:10:00,
2013-03-11 09:20:00,40.2,25.7,30.18,NNW,347,1.0,1.0,56,0.00,,,0.00,Wunderground v.1.15,2013-03-11 14:20:00,
2013-03-11 09:25:00,40.6,27.0,30.18,WNW,296,2.0,2.0,58,0.00,,,0.00,Wunderground v.1.15,2013-03-11 14:25:00,
2013-03-11 09:35:00,41.6,27.1,30.18,West,272,1.0,3.0,56,0.00,,,0.00,Wunderground v.1.15,2013-03-11 14:35:00,
2013-03-11 09:40:00,42.1,25.7,30.18,NNW,336,2.0,2.0,52,0.00,,,0.00,Wunderground v.1.15,2013-03-11 14:40:00,
2013-03-11 09:50:00,42.6,26.6,30.17,WNW,288,2.0,2.0,53,0.00,,,0.00,Wunderground v.1.15,2013-03-11 14:50:00,
2013-03-11 09:55:00,43.1,28.0,30.18,NW,308,3.0,6.0,55,0.00,,,0.00,Wunderground v.1.15,2013-03-11 14:55:00,
2013-03-11 10:05:00,43.8,26.8,30.18,North,353,3.0,8.0,51,0.00,,,0.00,Wunderground v.1.15,2013-03-11 15:05:00,
2013-03-11 10:10:00,44.2,28.6,30.18,NNW,335,3.0,3.0,54,0.00,,,0.00,Wunderground v.1.15,2013-03-11 15:10:00,
2013-03-11 10:20:00,45.2,27.6,30.17,NW,323,4.0,4.0,50,0.00,,,0.00,Wunderground v.1.15,2013-03-11 15:20:00,
2013-03-11 10:25:00,45.7,27.1,30.17,North,350,5.0,8.0,48,0.00,,,0.00,Wunderground v.1.15,2013-03-11 15:25:00,
2013-03-11 10:35:00,46.2,27.6,30.17,NNW,343,5.0,11.0,48,0.00,,,0.00,Wunderground v.1.15,2013-03-11 15:35:00,
2013-03-11 10:40:00,46.4,26.7,30.17,NW,316,5.0,11.0,46,0.00,,,0.00,Wunderground v.1.15,2013-03-11 15:40:00,
2013-03-11 10:50:00,47.6,29.4,30.17,NNW,344,5.0,5.0,49,0.00,,,0.00,Wunderground v.1.15,2013-03-11 15:50:00,
2013-03-11 10:55:00,47.9,25.3,30.17,NNW,346,2.0,11.0,41,0.00,,,0.00,Wunderground v.1.15,2013-03-11 15:55:00,
2013-03-11 11:05:00,48.6,27.6,30.18,NNW,329,4.0,11.0,44,0.00,,,0.00,Wunderground v.1.15,2013-03-11 16:05:00,
2013-03-11 11:10:00,48.5,24.6,30.17,NW,316,5.0,14.0,39,0.00,,,0.00,Wunderground v.1.15,2013-03-11 16:10:00,
2013-03-11 11:20:00,49.8,27.0,30.17,West,265,6.0,6.0,41,0.00,,,0.00,Wunderground v.1.15,2013-03-11 16:20:00,
2013-03-11 11:25:00,50.4,27.0,30.17,NW,320,5.0,6.0,40,0.00,,,0.00,Wunderground v.1.15,2013-03-11 16:25:00,
2013-03-11 11:35:00,51.6,26.1,30.17,NNW,328,4.0,5.0,37,0.00,,,0.00,Wunderground v.1.15,2013-03-11 16:35:00,
2013-03-11 11:40:00,51.7,26.9,30.17,NW,315,5.0,5.0,38,0.00,,,0.00,Wunderground v.1.15,2013-03-11 16:40:00,
2013-03-11 11:50:00,52.5,26.9,30.16,WNW,294,3.0,3.0,37,0.00,,,0.00,Wunderground v.1.15,2013-03-11 16:50:00,
2013-03-11 11:55:00,52.6,27.0,30.16,WNW,296,3.0,3.0,37,0.00,,,0.00,Wunderground v.1.15,2013-03-11 16:55:00,
2013-03-11 12:05:00,53.6,26.6,30.16,NW,318,5.0,15.0,35,0.00,,,0.00,Wunderground v.1.15,2013-03-11 17:05:00,
2013-03-11 12:10:00,54.1,24.1,30.16,WNW,294,4.0,4.0,31,0.00,,,0.00,Wunderground v.1.15,2013-03-11 17:10:00,
2013-03-11 12:20:00,55.0,24.9,30.15,WNW,302,4.0,8.0,31,0.00,,,0.00,Wunderground v.1.15,2013-03-11 17:20:00,
2013-03-11 12:25:00,55.6,22.1,30.15,NW,309,5.0,8.0,27,0.00,,,0.00,Wunderground v.1.15,2013-03-11 17:25:00,
2013-03-11 12:35:00,55.7,23.9,30.15,NNW,339,3.0,12.0,29,0.00,,,0.00,Wunderground v.1.15,2013-03-11 17:35:00,
2013-03-11 12:40:00,55.6,28.4,30.14,NW,313,3.0,3.0,35,0.00,,,0.00,Wunderground v.1.15,2013-03-11 17:40:00,
2013-03-11 12:50:00,56.6,23.8,30.14,North,0,1.0,6.0,28,0.00,,,0.00,Wunderground v.1.15,2013-03-11 17:50:00,
2013-03-11 12:55:00,56.3,26.8,30.14,NW,313,2.0,6.0,32,0.00,,,0.00,Wunderground v.1.15,2013-03-11 17:55:00,
2013-03-11 13:05:00,57.2,24.3,30.14,NNW,329,4.0,10.0,28,0.00,,,0.00,Wunderground v.1.15,2013-03-11 18:05:00,
2013-03-11 13:10:00,57.3,24.4,30.13,NW,313,5.0,5.0,28,0.00,,,0.00,Wunderground v.1.15,2013-03-11 18:10:00,
2013-03-11 13:20:00,56.6,23.8,30.12,NW,305,3.0,3.0,28,0.00,,,0.00,Wunderground v.1.15,2013-03-11 18:20:00,
2013-03-11 13:25:00,57.3,24.4,30.12,NNW,330,2.0,3.0,28,0.00,,,0.00,Wunderground v.1.15,2013-03-11 18:25:00,
2013-03-11 13:35:00,58.0,24.2,30.12,North,359,2.0,6.0,27,0.00,,,0.00,Wunderground v.1.15,2013-03-11 18:35:00,
2013-03-11 13:40:00,58.4,24.5,30.12,NW,316,2.0,7.0,27,0.00,,,0.00,Wunderground v.1.15,2013-03-11 18:40:00,
2013-03-11 13:50:00,60.1,27.7,30.10,North,350,3.0,4.0,29,0.00,,,0.00,Wunderground v.1.15,2013-03-11 18:50:00,
2013-03-11 13:55:00,60.2,23.2,30.10,NW,322,3.0,6.0,24,0.00,,,0.00,Wunderground v.1.15,2013-03-11 18:55:00,
2013-03-11 14:05:00,60.2,25.1,30.09,NNW,347,3.0,13.0,26,0.00,,,0.00,Wunderground v.1.15,2013-03-11 19:05:00,
2013-03-11 14:10:00,61.2,27.8,30.09,NW,320,2.0,2.0,28,0.00,,,0.00,Wunderground v.1.15,2013-03-11 19:10:00,
2013-03-11 14:20:00,62.3,25.0,30.08,NNW,337,3.0,4.0,24,0.00,,,0.00,Wunderground v.1.15,2013-03-11 19:20:00,
2013-03-11 14:25:00,62.4,25.1,30.08,NW,312,4.0,4.0,24,0.00,,,0.00,Wunderground v.1.15,2013-03-11 19:25:00,
2013-03-11 14:35:00,62.1,22.8,30.07,NW,322,2.0,3.0,22,0.00,,,0.00,Wunderground v.1.15,2013-03-11 19:35:00,
2013-03-11 14:40:00,62.6,26.2,30.07,NNW,335,3.0,3.0,25,0.00,,,0.00,Wunderground v.1.15,2013-03-11 19:40:00,
2013-03-11 14:50:00,62.6,24.2,30.07,NNW,347,3.0,5.0,23,0.00,,,0.00,Wunderground v.1.15,2013-03-11 19:50:00,
2013-03-11 14:55:00,62.7,25.3,30.06,NW,315,2.0,11.0,24,0.00,,,0.00,Wunderground v.1.15,2013-03-11 19:55:00,
2013-03-11 15:05:00,63.7,24.1,30.05,NW,309,2.0,2.0,22,0.00,,,0.00,Wunderground v.1.15,2013-03-11 20:05:00,
2013-03-11 15:10:00,64.2,23.4,30.05,NW,322,2.0,2.0,21,0.00,,,0.00,Wunderground v.1.15,2013-03-11 20:10:00,
2013-03-11 15:20:00,64.2,24.5,30.04,NW,304,2.0,2.0,22,0.00,,,0.00,Wunderground v.1.15,2013-03-11 20:20:00,
2013-03-11 15:25:00,64.0,24.4,30.04,NW,312,2.0,5.0,22,0.00,,,0.00,Wunderground v.1.15,2013-03-11 20:25:00,
2013-03-11 15:35:00,64.0,23.2,30.04,North,349,4.0,4.0,21,0.00,,,0.00,Wunderground v.1.15,2013-03-11 20:35:00,
2013-03-11 15:40:00,64.3,26.7,30.03,NNW,330,3.0,3.0,24,0.00,,,0.00,Wunderground v.1.15,2013-03-11 20:40:00,
2013-03-11 15:50:00,64.7,24.9,30.03,North,0,3.0,7.0,22,0.00,,,0.00,Wunderground v.1.15,2013-03-11 20:50:00,
2013-03-11 15:55:00,64.7,26.0,30.02,WNW,294,4.0,7.0,23,0.00,,,0.00,Wunderground v.1.15,2013-03-11 20:55:00,
2013-03-11 16:05:00,64.7,23.8,30.02,NW,322,3.0,3.0,21,0.00,,,0.00,Wunderground v.1.15,2013-03-11 21:05:00,
2013-03-11 16:10:00,64.5,23.7,30.01,North,353,3.0,3.0,21,0.00,,,0.00,Wunderground v.1.15,2013-03-11 21:10:00,
2013-03-11 16:20:00,64.8,27.1,30.01,North,353,2.0,2.0,24,0.00,,,0.00,Wunderground v.1.15,2013-03-11 21:20:00,
2013-03-11 16:25:00,64.7,24.9,30.01,NNW,344,2.0,3.0,22,0.00,,,0.00,Wunderground v.1.15,2013-03-11 21:25:00,
2013-03-11 16:35:00,64.0,23.2,30.01,NW,315,4.0,4.0,21,0.00,,,0.00,Wunderground v.1.15,2013-03-11 21:35:00,
2013-03-11 16:40:00,64.2,26.6,30.00,NNW,340,2.0,2.0,24,0.00,,,0.00,Wunderground v.1.15,2013-03-11 21:40:00,
2013-03-11 16:50:00,64.0,25.4,30.00,North,354,1.0,1.0,23,0.00,,,0.00,Wunderground v.1.15,2013-03-11 21:50:00,
2013-03-11 16:55:00,63.7,27.2,30.00,WNW,292,1.0,1.0,25,0.00,,,0.00,Wunderground v.1.15,2013-03-11 21:55:00,
2013-03-11 17:05:00,63.9,24.3,30.00,NW,322,0.0,3.0,22,0.00,,,0.00,Wunderground v.1.15,2013-03-11 22:05:00,
2013-03-11 17:10:00,63.9,25.3,29.99,West,267,1.0,1.0,23,0.00,,,0.00,Wunderground v.1.15,2013-03-11 22:10:00,
2013-03-11 17:20:00,63.7,27.2,29.99,North,354,1.0,1.0,25,0.00,,,0.00,Wunderground v.1.15,2013-03-11 22:20:00,
2013-03-11 17:25:00,63.5,23.9,29.99,NW,325,1.0,1.0,22,0.00,,,0.00,Wunderground v.1.15,2013-03-11 22:25:00,
2013-03-11 17:35:00,63.2,28.6,29.99,NW,311,1.0,1.0,27,0.00,,,0.00,Wunderground v.1.15,2013-03-11 22:35:00,
2013-03-11 17:40:00,63.2,25.8,29.99,NW,305,0.0,3.0,24,0.00,,,0.00,Wunderground v.1.15,2013-03-11 22:40:00,
2013-03-11 17:50:00,63.1,25.7,29.99,NNW,335,1.0,3.0,24,0.00,,,0.00,Wunderground v.1.15,2013-03-11 22:50:00,
2013-03-11 17:55:00,62.7,29.1,29.98,West,272,1.0,3.0,28,0.00,,,0.00,Wunderground v.1.15,2013-03-11 22:55:00,
2013-03-11 18:05:00,62.6,25.3,29.98,WNW,284,1.0,1.0,24,0.00,,,0.00,Wunderground v.1.15,2013-03-11 23:05:00,
2013-03-11 18:10:00,62.4,25.1,29.99,WNW,284,1.0,1.0,24,0.00,,,0.00,Wunderground v.1.15,2013-03-11 23:10:00,
2013-03-11 18:20:00,62.4,27.9,29.99,NW,322,0.0,0.0,27,0.00,,,0.00,Wunderground v.1.15,2013-03-11 23:20:00,
2013-03-11 18:25:00,62.4,28.8,29.99,NW,313,1.0,1.0,28,0.00,,,0.00,Wunderground v.1.15,2013-03-11 23:25:00,
2013-03-11 18:35:00,62.0,28.5,29.99,NW,318,0.0,1.0,28,0.00,,,0.00,Wunderground v.1.15,2013-03-11 23:35:00,
2013-03-11 18:40:00,61.5,28.1,29.99,NNW,330,0.0,0.0,28,0.00,,,0.00,Wunderground v.1.15,2013-03-11 23:40:00,
2013-03-11 18:50:00,61.0,29.3,29.99,NNW,329,0.0,0.0,30,0.00,,,0.00,Wunderground v.1.15,2013-03-11 23:50:00,
2013-03-11 18:55:00,60.7,29.1,29.99,NNW,329,0.0,0.0,30,0.00,,,0.00,Wunderground v.1.15,2013-03-11 23:55:00,
2013-03-11 19:05:00,59.9,29.9,29.99,NNW,329,0.0,0.0,32,0.00,,,0.00,Wunderground v.1.15,2013-03-12 00:05:00,
2013-03-11 19:10:00,59.3,30.2,29.99,NNW,329,0.0,0.0,33,0.00,,,0.00,Wunderground v.1.15,2013-03-12 00:10:00,
2013-03-11 19:20:00,58.3,30.7,30.00,NNW,329,0.0,0.0,35,0.00,,,0.00,Wunderground v.1.15,2013-03-12 00:20:00,
2013-03-11 19:25:00,57.6,32.2,30.00,NNW,329,0.0,0.0,38,0.00,,,0.00,Wunderground v.1.15,2013-03-12 00:25:00,
2013-03-11 19:35:00,56.3,31.6,30.01,NNW,329,0.0,0.0,39,0.00,,,0.00,Wunderground v.1.15,2013-03-12 00:35:00,
2013-03-11 19:40:00,55.7,33.5,30.01,NNW,329,0.0,0.0,43,0.00,,,0.00,Wunderground v.1.15,2013-03-12 00:40:00,
2013-03-11 19:50:00,54.2,32.7,30.01,NNW,329,0.0,0.0,44,0.00,,,0.00,Wunderground v.1.15,2013-03-12 00:50:00,
2013-03-11 19:55:00,53.5,32.1,30.02,NNW,329,0.0,0.0,44,0.00,,,0.00,Wunderground v.1.15,2013-03-12 00:55:00,
2013-03-11 20:05:00,52.0,32.4,30.01,NNW,329,0.0,0.0,47,0.00,,,0.00,Wunderground v.1.15,2013-03-12 01:05:00,
2013-03-11 20:10:00,51.1,32.6,30.02,NNW,329,0.0,0.0,49,0.00,,,0.00,Wunderground v.1.15,2013-03-12 01:10:00,
2013-03-11 20:20:00,49.8,31.9,30.02,NNW,329,0.0,0.0,50,0.00,,,0.00,Wunderground v.1.15,2013-03-12 01:20:00,
2013-03-11 20:25:00,49.1,31.7,30.03,NNW,329,0.0,0.0,51,0.00,,,0.00,Wunderground v.1.15,2013-03-12 01:25:00,
2013-03-11 20:35:00,48.0,32.6,30.03,NNW,329,0.0,0.0,55,0.00,,,0.00,Wunderground v.1.15,2013-03-12 01:35:00,
2013-03-11 20:40:00,47.4,31.6,30.03,NNW,329,0.0,0.0,54,0.00,,,0.00,Wunderground v.1.15,2013-03-12 01:40:00,
2013-03-11 20:50:00,46.4,31.5,30.04,NNW,329,0.0,0.0,56,0.00,,,0.00,Wunderground v.1.15,2013-03-12 01:50:00,
2013-03-11 20:55:00,46.0,32.0,30.05,NNW,329,0.0,0.0,58,0.00,,,0.00,Wunderground v.1.15,2013-03-12 01:55:00,
2013-03-11 21:05:00,45.4,31.9,30.05,NNW,329,0.0,0.0,59,0.00,,,0.00,Wunderground v.1.15,2013-03-12 02:05:00,
2013-03-11 21:10:00,44.9,31.4,30.04,NNW,329,0.0,0.0,59,0.00,,,0.00,Wunderground v.1.15,2013-03-12 02:10:00,
2013-03-11 21:20:00,44.5,31.5,30.05,NNW,329,0.0,0.0,60,0.00,,,0.00,Wunderground v.1.15,2013-03-12 02:20:00,
2013-03-11 21:25:00,44.2,30.8,30.05,NNW,329,0.0,0.0,59,0.00,,,0.00,Wunderground v.1.15,2013-03-12 02:25:00,
2013-03-11 21:35:00,43.9,31.7,30.05,NNW,329,0.0,0.0,62,0.00,,,0.00,Wunderground v.1.15,2013-03-12 02:35:00,
2013-03-11 21:40:00,43.8,31.2,30.05,NNW,329,0.0,0.0,61,0.00,,,0.00,Wunderground v.1.15,2013-03-12 02:40:00,
2013-03-11 21:50:00,43.2,31.4,30.05,NNW,329,0.0,0.0,63,0.00,,,0.00,Wunderground v.1.15,2013-03-12 02:50:00,
2013-03-11 21:55:00,43.1,31.7,30.05,NNW,329,0.0,0.0,64,0.00,,,0.00,Wunderground v.1.15,2013-03-12 02:55:00,
2013-03-11 22:05:00,42.6,31.3,30.05,NNW,329,0.0,0.0,64,0.00,,,0.00,Wunderground v.1.15,2013-03-12 03:05:00,
2013-03-11 22:10:00,42.5,31.2,30.05,NNW,329,0.0,0.0,64,0.00,,,0.00,Wunderground v.1.15,2013-03-12 03:10:00,
2013-03-11 22:20:00,42.2,31.3,30.06,NNW,329,0.0,0.0,65,0.00,,,0.00,Wunderground v.1.15,2013-03-12 03:20:00,
2013-03-11 22:25:00,42.1,31.6,30.06,NNW,329,0.0,0.0,66,0.00,,,0.00,Wunderground v.1.15,2013-03-12 03:25:00,
2013-03-11 22:35:00,41.9,31.7,30.06,NNW,329,0.0,0.0,67,0.00,,,0.00,Wunderground v.1.15,2013-03-12 03:35:00,
2013-03-11 22:40:00,41.9,31.4,30.06,NNW,329,0.0,0.0,66,0.00,,,0.00,Wunderground v.1.15,2013-03-12 03:40:00,
2013-03-11 22:50:00,41.8,31.6,30.07,NNW,329,0.0,0.0,67,0.00,,,0.00,Wunderground v.1.15,2013-03-12 03:50:00,
2013-03-11 22:55:00,41.8,32.0,30.07,NNW,329,0.0,0.0,68,0.00,,,0.00,Wunderground v.1.15,2013-03-12 03:55:00,
2013-03-11 23:00:00,41.8,30.9,30.07,NNW,329,0.0,0.0,65,0.00,,,0.00,Wunderground v.1.15,2013-03-12 04:00:00,
2013-03-11 23:05:00,41.8,31.3,30.06,NNW,329,0.0,0.0,66,0.00,,,0.00,Wunderground v.1.15,2013-03-12 04:05:00,
2013-03-11 23:10:00,41.8,30.1,30.06,NNW,329,0.0,0.0,63,0.00,,,0.00,Wunderground v.1.15,2013-03-12 04:10:00,
2013-03-11 23:20:00,42.1,30.8,30.06,NNW,329,0.0,0.0,64,0.00,,,0.00,Wunderground v.1.15,2013-03-12 04:20:00,
2013-03-11 23:25:00,42.2,30.5,30.07,NNW,329,0.0,0.0,63,0.00,,,0.00,Wunderground v.1.15,2013-03-12 04:25:00,
2013-03-11 23:35:00,42.3,30.2,30.07,NNW,329,0.0,0.0,62,0.00,,,0.00,Wunderground v.1.15,2013-03-12 04:35:00,
2013-03-11 23:40:00,42.5,30.8,30.07,NNW,329,0.0,0.0,63,0.00,,,0.00,Wunderground v.1.15,2013-03-12 04:40:00,
2013-03-11 23:50:00,42.5,30.0,30.07,NNW,329,0.0,0.0,61,0.00,,,0.00,Wunderground v.1.15,2013-03-12 04:50:00,
2013-03-11 23:55:00,42.5,30.4,30.07,NNW,329,0.0,0.0,62,0.00,,,0.00,Wunderground v.1.15,2013-03-12 04:55:00,